DateTimeUTC,F1_A11,F1_S11,BsB_S11,BsG_S11,BsR_S11,BbsB_S11,BbsG_S11,BbsR_S11,BaB_A11,BaG_A11,BaR_A11,Tu_S11,T_S11,Uu_S11,U_S11,P_S11,T1_A11
2021-02-05T15:00:00Z,00000200,21000000,,,,,,,-000.10,-000.23,-000.07,16.8,24.3,,00.0,0641.2,31.0
2021-02-05T15:01:00Z,00000200,21000000,,,,,,,0000.43,0000.52,0000.17,16.8,24.2,,00.0,0641.2,31.0
2021-02-05T15:02:00Z,00000200,21000000,,,,,,,0000.23,0000.36,-000.01,16.8,24.2,,00.0,0641.2,31.0
2021-02-05T15:03:00Z,00000200,61000000,,,,,,,0000.52,0000.44,0000.25,16.8,24.3,,00.0,0641.2,31.0
2021-02-05T15:04:00Z,00000200,41000000,0000.57,-000.01,-000.11,-000.43,0000.15,0000.03,0000.32,0000.22,0000.83,17.2,24.1,,00.0,0641.9,31.0
2021-02-05T15:05:00Z,00000200,01000000,0000.31,0000.15,0000.24,0000.38,0000.08,-000.29,0000.18,0000.39,-000.25,17.2,24.1,,00.0,0642.0,31.0
2021-02-05T15:06:00Z,00000200,01000000,0000.51,0000.12,0000.09,0000.33,0000.10,0000.27,-000.31,-000.44,-000.15,17.2,24.0,,00.0,0642.0,31.0
2021-02-05T15:07:00Z,00000200,01000000,0000.14,0000.07,0000.19,-000.28,0000.20,0000.10,0000.04,-000.17,0000.00,17.1,24.0,,00.0,0642.1,31.0
2021-02-05T15:08:00Z,00000200,01000000,0000.15,0000.30,-000.18,0000.14,0000.18,-000.04,-000.01,0000.21,0000.10,17.1,24.0,,00.0,0642.1,31.0
2021-02-05T15:09:00Z,00000200,01000000,0001.46,0000.17,-000.00,0000.18,0000.13,0000.38,-000.36,-000.43,0000.04,17.0,24.0,,00.0,0642.2,31.0
2021-02-05T15:10:00Z,00000200,01000000,0000.27,0000.13,0000.12,0000.20,0000.19,0000.14,0000.08,0000.06,-000.22,17.0,24.0,,00.0,0642.2,31.0
2021-02-05T15:11:00Z,00000200,01000000,0000.87,0000.42,-000.26,0000.04,0000.27,-000.19,0000.17,-000.02,0000.21,16.9,24.0,,00.0,0642.2,31.0
2021-02-05T15:12:00Z,00000200,01000000,0000.94,0000.37,0000.55,0000.34,-000.01,0000.14,0000.24,0000.22,-000.28,16.9,23.9,,00.0,0642.2,31.0
2021-02-05T15:13:00Z,00000200,01000000,0000.38,0000.37,0000.22,0000.45,0000.09,0000.17,0000.35,0000.52,0000.69,16.9,23.9,,00.0,0642.2,31.0
2021-02-05T15:14:00Z,00000200,01000000,-000.14,0000.55,0000.05,0000.24,-000.02,0000.17,0000.11,-000.40,-000.65,16.9,23.9,,00.0,0642.2,31.0
2021-02-05T15:15:00Z,00000200,01000000,0001.40,0000.57,-000.09,0000.50,-000.00,-000.26,0000.51,0000.89,0000.91,16.8,23.9,,00.0,0642.2,30.9
2021-02-05T15:16:00Z,00000200,01000000,0000.86,0000.23,0000.04,0000.22,0000.09,0000.01,0000.36,0000.28,0000.26,16.8,23.9,,00.0,0642.2,30.9
2021-02-05T15:17:00Z,00000200,01000000,0000.20,-000.04,-000.08,0001.04,0000.13,0000.17,0000.33,0000.48,0000.44,16.9,23.9,,00.0,0642.1,31.0
2021-02-05T15:18:00Z,00000200,01000000,0000.26,0000.58,-000.30,0000.32,-000.05,-000.30,0000.46,0000.54,0000.04,17.0,23.9,,00.0,0642.1,31.0
2021-02-05T15:19:00Z,00000200,01000000,-000.18,0000.30,-000.02,-000.09,0000.04,-000.00,0000.14,0000.28,0000.29,17.1,24.0,,00.0,0642.1,31.0
2021-02-05T15:20:00Z,00000200,01000000,0000.01,0000.31,-000.10,0000.62,0000.36,0000.21,0000.63,-000.10,0000.28,17.2,24.0,,00.0,0642.1,31.0
2021-02-05T15:21:00Z,00000200,01000000,0000.78,0000.19,-000.10,-000.43,0000.04,0000.09,-000.41,0000.16,-000.10,17.3,24.1,,00.0,0642.1,31.1
2021-02-05T15:22:00Z,00000200,01000000,-000.18,0000.33,0000.05,0000.03,0000.24,0000.04,0000.39,0000.64,0000.37,17.4,24.1,,00.0,0642.1,31.0
2021-02-05T15:23:00Z,00000200,01000000,-000.00,0000.11,-000.15,0000.16,0000.04,0000.04,0000.06,-000.06,-000.07,17.4,24.1,,00.0,0642.1,31.0
2021-02-05T15:24:00Z,00000200,01000000,-000.02,0000.26,-000.10,0000.25,0000.22,-000.40,-000.08,0000.01,-000.22,17.4,24.1,,00.0,0642.1,31.0
2021-02-05T15:25:00Z,00000200,01000000,0000.23,0000.37,-000.05,0000.34,0000.07,-000.06,0000.21,-000.20,0000.04,17.3,24.1,,00.0,0642.1,31.0
2021-02-05T15:26:00Z,00000200,01000000,0000.12,0000.38,0000.07,0000.06,-000.05,-000.05,0000.37,0000.65,0000.22,17.3,24.1,,00.0,0642.1,31.0
2021-02-05T15:27:00Z,00000200,01000000,0000.29,0000.52,0000.22,0000.13,0000.27,0000.29,0000.21,-000.19,0000.29,17.2,24.1,,00.0,0642.1,31.0
2021-02-05T15:28:00Z,00000200,01000000,0000.04,0000.52,0000.19,0000.81,0000.24,0000.02,0000.42,0000.30,0000.29,17.2,24.0,,00.0,0642.1,31.0
2021-02-05T15:29:00Z,00000200,01000000,0000.99,0000.27,-000.14,0000.01,-000.01,0000.13,0000.21,0000.24,-000.12,17.1,24.0,,00.0,0642.0,31.0
2021-02-05T15:30:00Z,00000200,01000000,0000.33,0000.26,-000.17,0000.84,0000.12,0000.29,-000.18,0000.16,-000.11,17.1,24.0,,00.0,0642.0,30.9
2021-02-05T15:31:00Z,00000200,01000000,0000.42,0000.40,0000.10,0000.29,-000.12,-000.05,0000.77,-000.01,0000.50,17.1,23.9,,00.0,0642.0,30.9
2021-02-05T15:32:00Z,00000200,01000000,0000.46,0000.21,-000.38,0000.44,-000.12,-000.07,0000.14,0000.31,-000.07,17.2,24.0,,00.0,0642.0,31.0
2021-02-05T15:33:00Z,00000200,01000000,0000.00,0000.11,-000.13,0000.26,0000.08,-000.15,0000.17,0000.14,0000.35,17.2,24.0,,00.0,0642.0,31.0
2021-02-05T15:34:00Z,00000200,01000000,0000.32,0000.22,0000.27,0000.41,0000.03,0000.21,-000.20,-000.06,-000.10,17.2,24.0,,00.0,0642.0,31.0
2021-02-05T15:35:00Z,00000200,01000000,0000.38,0000.35,0000.04,0000.23,0000.14,0000.10,0000.21,0000.24,0000.29,17.2,24.0,,00.0,0642.0,31.0
2021-02-05T15:36:00Z,00000200,01000000,0000.60,0000.42,-000.03,0000.24,0000.06,-000.03,0000.39,-000.00,-000.21,17.1,24.0,,00.0,0642.1,31.0
2021-02-05T15:37:00Z,00000200,01000000,0000.57,0000.22,0000.20,-000.05,0000.06,0000.07,-000.44,0000.25,0000.08,17.1,24.0,,00.0,0642.1,30.9
2021-02-05T15:38:00Z,00000200,01000000,0000.90,0000.43,0000.04,0000.27,-000.00,-000.05,0000.44,-000.11,0000.43,17.0,23.9,,00.0,0642.1,30.9
2021-02-05T15:39:00Z,00000200,01000000,0000.38,-000.03,-000.26,0000.46,0000.14,-000.07,-000.35,-000.33,-000.86,17.0,23.9,,00.0,0642.1,30.9
2021-02-05T15:40:00Z,00000200,01000000,0000.75,0000.10,0000.25,0000.07,0000.24,-000.05,-000.24,0000.27,0000.35,16.9,23.9,,00.0,0642.1,31.0
2021-02-05T15:41:00Z,00000200,01000000,0000.61,0000.32,0000.23,0000.46,0000.19,-000.08,0000.12,-000.26,-000.14,16.9,23.9,,00.0,0642.2,31.0
2021-02-05T15:42:00Z,00000200,01000000,0000.25,0000.32,0000.03,0000.01,0000.16,0000.19,0000.14,0000.35,0000.13,16.8,23.8,,00.0,0642.2,30.9
2021-02-05T15:43:00Z,00000200,01000000,0000.80,0000.23,-000.08,0000.11,0000.10,0000.23,-000.12,-000.23,0000.07,16.8,23.8,,00.0,0642.2,30.9
2021-02-05T15:44:00Z,00000200,01000000,0000.42,0000.11,-000.04,-000.17,-000.16,-000.00,0000.16,-000.41,-000.04,16.8,23.8,,00.0,0642.2,30.9
2021-02-05T15:45:00Z,00000200,01000000,0000.43,0000.19,0000.17,0000.71,0000.02,0000.35,-000.14,-000.09,-000.15,16.7,23.8,,00.0,0642.3,30.9
2021-02-05T15:46:00Z,00000200,01000000,0000.09,0000.13,-000.32,-000.09,0000.13,-000.32,0000.28,0000.59,0000.17,16.8,23.7,,00.0,0642.2,30.9
2021-02-05T15:47:00Z,00000200,01000000,0000.98,0000.31,0000.08,-000.29,0000.10,-000.09,-000.33,-000.06,0000.21,16.8,23.8,,00.0,0642.2,30.9
2021-02-05T15:48:00Z,00000200,01000000,0000.63,0000.41,0000.26,0000.73,0000.01,0000.18,0000.31,-000.16,0000.27,16.9,23.8,,00.0,0642.2,31.0
2021-02-05T15:49:00Z,00000200,01000000,0001.02,0000.03,0000.25,-000.11,0000.26,0000.24,-000.43,0000.37,-000.13,17.0,23.8,,00.0,0642.3,31.0
2021-02-05T15:50:00Z,00000200,01000000,0001.01,0000.17,0000.06,-000.19,0000.24,-000.12,0000.19,-000.10,-000.17,17.0,23.8,,00.0,0642.3,31.0
2021-02-05T15:51:00Z,00000200,01000000,-000.39,0000.48,-000.22,0000.52,0000.13,-000.30,0000.22,0000.02,0000.22,17.1,23.8,,00.0,0642.4,31.0
2021-02-05T15:52:00Z,00000200,01000000,0001.11,0000.46,0000.02,0000.24,-000.09,0000.10,-000.57,-000.28,-000.17,17.0,23.8,,00.0,0642.4,31.0
2021-02-05T15:53:00Z,00000200,01000000,0000.40,0000.12,0000.28,0000.49,-000.19,0000.02,0000.52,0000.20,0000.07,17.0,23.8,,00.0,0642.4,31.0
2021-02-05T15:54:00Z,00000200,01000000,0001.26,0000.33,-000.12,0000.59,0000.33,0000.02,-000.24,-000.33,0000.04,16.9,23.8,,00.0,0642.5,30.9
2021-02-05T15:55:00Z,00000200,01000000,0001.00,0000.60,-000.20,0000.10,-000.11,-000.19,0000.09,-000.15,-000.13,16.9,23.8,,00.0,0642.5,30.9
2021-02-05T15:56:00Z,00000200,01000000,0000.19,-000.01,0000.03,-000.02,-000.05,-000.06,0000.08,0000.47,0000.05,16.8,23.7,,00.0,0642.6,30.9
2021-02-05T15:57:00Z,00000200,41000000,,,,,,,-000.10,0000.04,0000.13,16.8,23.8,,00.0,0642.7,30.9
2021-02-05T15:58:00Z,00000200,61000000,,,,,,,-000.18,-000.26,-000.30,16.4,23.8,,00.0,0641.7,30.9
2021-02-05T15:59:00Z,00000200,21000000,,,,,,,-000.19,-000.50,-000.37,16.3,23.9,,00.0,0641.7,30.9
